[[{"header":{"parameterUnit":"m.s-1","parameterCategory":1,"la1":30.2992,"la2":30.254,"lo1":-89.0895,"lo2":-89.0443,"dy":0.0025,"dx":0.0025,"nx":19,"ny":19,"refTime":"2026-04-01T03:00:00:Z","depth":0,"parameterNumber":2,"parameterNumberName":"U-component_of_WINDS"},"data":[0,0,0,-3.8204,-3.8206,-3.8322,-3.8323,-3.8485,-3.8487,0,0,0,0,0,0,0,0,0,0,0,-3.8176,-3.8177,-3.8203,-3.8207,-3.8322,-3.8323,-3.8485,-3.8487,0,0,0,0,0,0,0,0,0,0,0,-3.8175,-3.8177,-3.8178,-3.8207,-3.8322,-3.8323,-3.8484,-3.8392,0,0,0,0,0,0,0,0,0,0,-3.8278,-3.8257,-3.8176,-3.8178,-3.8208,-3.8322,-3.8323,-3.8388,-3.8398,-3.8438,0,-3.8473,0,-3.8482,-3.8498,-3.8499,0,0,0,-3.8202,-3.8249,-3.8274,-3.8178,-3.8209,-3.8322,-3.8269,-3.8393,-3.8405,-3.8452,-3.8475,-3.8481,-3.8485,-3.8499,-3.85,-3.8738,-3.8739,0,0,-3.8196,-3.82,-3.8266,-3.8282,-3.8263,-3.8265,-3.8273,-3.84,-3.8427,-3.8476,-3.8484,-3.8488,-3.85,-3.8502,-3.8737,-3.8738,0,0,0,-3.818,-3.8196,-3.8218,-3.8276,-3.8295,-3.8269,-3.8277,-3.8421,-3.8428,-3.8486,-3.8489,-3.8501,-3.8503,-3.8735,-3.8737,-3.8805,0,0,0,-3.8176,-3.8187,-3.8215,-3.8219,-3.8293,-3.8359,-3.8295,-3.8419,-3.8433,-3.8489,-3.8501,-3.8505,-3.8734,-3.8737,-3.88,-3.8837,0,0,0,-3.8166,-3.8186,-3.8204,-3.8219,-3.8269,-3.8357,-3.8371,-3.8422,-3.8436,-3.8499,-3.8506,-3.8733,-3.8736,-3.8796,-3.8829,-3.89,0,0,0,-3.8157,-3.8264,-3.8206,-3.8327,-3.8268,-3.8398,-3.837,-3.8467,-3.8529,-3.8502,-3.8734,-3.8737,-3.8794,-3.8825,-3.8895,-3.896,-3.8987,0,0,-3.8295,-3.8281,-3.8352,-3.8303,-3.8444,-3.838,-3.8532,-3.8585,-3.8589,-3.8689,-3.8694,-3.8802,-3.8829,-3.8899,-3.914,-3.9162,0,0,0,-3.8397,-3.8448,-3.8485,-3.8543,-3.8586,-3.8626,-3.8656,-3.8676,-3.876,-3.864,-3.8847,-3.8863,-3.8904,-3.8935,-3.8953,-3.8988,-3.8752,-3.8751,-3.8751,-3.8598,-3.8595,-3.8713,-3.8724,-3.8782,-3.8812,-3.8859,-3.8891,-3.8872,-3.8922,-3.8951,-3.9097,-3.9133,-3.9147,-3.9184,-3.8985,-3.8986,-3.8986,-3.8986,-3.88,-3.8871,-3.8844,-3.8947,-3.8945,-3.9033,-3.9067,-3.9051,-3.9133,-3.9075,-3.9111,-3.9046,-3.9171,-3.9203,-3.8991,-3.899,-3.899,-3.8989,-3.8989,-3.893,-3.8964,-3.8986,-3.9071,-3.9137,-3.9146,-3.9226,-3.9222,-3.9218,-3.9254,-3.9284,-3.9283,-3.9281,-3.9269,-3.9269,-3.927,-3.927,-3.9271,-3.9271,-3.9057,-3.9079,-3.9147,-3.9202,-3.9239,-3.9288,-3.932,-3.9357,-3.9397,-3.9388,-3.9388,-3.9365,-3.9184,-3.9138,-3.9279,-3.9277,-3.9276,-3.9276,-3.9275,-3.9261,-3.9214,-3.9318,-3.9355,-3.942,-3.9486,-3.9479,-3.9556,-3.9586,-3.9627,-3.9596,-3.9463,-3.9449,-3.9435,-3.9397,-3.9596,-3.9596,-3.9596,-3.9596,-3.9371,-3.9363,-3.9468,-3.9528,-3.9587,-3.9591,-3.9711,-3.9738,-3.9759,-3.9778,-3.9749,-3.9699,-3.9684,-3.9679,-3.9659,-3.9623,-3.9876,-3.9876,-3.9876,-3.9496,-3.9494,-3.9595,-3.9613,-3.9664,-3.9708,-3.9821,-3.9893,-3.9907,-3.9887,-3.9793,-3.9781,-3.97,-3.9674,-3.9651,-3.962,-3.9555,0,0]},{"header":{"parameterUnit":"m.s-1","parameterCategory":1,"la1":30.2992,"la2":30.254,"lo1":-89.0895,"lo2":-89.0443,"dy":0.0025,"dx":0.0025,"nx":19,"ny":19,"refTime":"2026-04-01T03:00:00:Z","depth":0,"parameterNumber":3,"parameterNumberName":"V-component_of_WINDS"},"data":[0,0,0,3.3435,3.3439,3.3649,3.365,3.3885,3.3886,0,0,0,0,0,0,0,0,0,0,0,3.3355,3.3356,3.3434,3.3439,3.3649,3.365,3.3884,3.3886,0,0,0,0,0,0,0,0,0,0,0,3.3354,3.3356,3.3357,3.344,3.3649,3.365,3.3884,3.3737,0,0,0,0,0,0,0,0,0,0,3.3538,3.3448,3.3355,3.3357,3.3441,3.3649,3.365,3.373,3.3746,3.3776,0,3.38,0,3.3847,3.39,3.3901,0,0,0,3.3452,3.3435,3.3508,3.3357,3.3443,3.3648,3.3558,3.3739,3.3757,3.3796,3.3804,3.3814,3.3851,3.3902,3.3903,3.4041,3.4041,0,0,3.344,3.3382,3.3495,3.3518,3.3487,3.3551,3.3564,3.3751,3.3754,3.3805,3.382,3.3855,3.3903,3.3905,3.4041,3.4041,0,0,0,3.3398,3.3374,3.3443,3.3508,3.3549,3.3557,3.3572,3.3746,3.3773,3.3822,3.3858,3.3904,3.3907,3.4041,3.4041,3.3991,0,0,0,3.3392,3.335,3.3437,3.3404,3.3545,3.365,3.3562,3.376,3.3783,3.3856,3.3904,3.3909,3.4041,3.4041,3.3992,3.3976,0,0,0,3.3347,3.3345,3.3369,3.34,3.3489,3.3649,3.3688,3.3767,3.3804,3.3901,3.3909,3.4041,3.4041,3.3993,3.3978,3.3997,0,0,0,3.3282,3.3319,3.3367,3.3423,3.3487,3.3616,3.3687,3.3786,3.3863,3.3905,3.4041,3.4041,3.3994,3.398,3.3998,3.4003,3.3999,0,0,3.3297,3.3319,3.3356,3.3406,3.3512,3.3589,3.3688,3.3811,3.3871,3.398,3.3984,3.3992,3.3978,3.3997,3.3999,3.3996,0,0,0,3.3341,3.3367,3.3408,3.3481,3.3578,3.3659,3.3774,3.382,3.3916,3.3917,3.4005,3.3999,3.4012,3.4017,3.4014,3.4029,3.4041,3.4041,3.4041,3.3279,3.3357,3.3424,3.3526,3.3595,3.3714,3.3777,3.3858,3.3914,3.3933,3.3966,3.3959,3.3962,3.3961,3.3975,3.3975,3.3974,3.3974,3.3974,3.3309,3.3358,3.3434,3.3526,3.3606,3.3683,3.3798,3.3835,3.3917,3.394,3.3955,3.3974,3.3955,3.3972,3.3971,3.3972,3.3972,3.3972,3.3973,3.3278,3.3315,3.3372,3.3486,3.3563,3.3665,3.3741,3.3811,3.3876,3.3892,3.3934,3.3935,3.3946,3.3907,3.3907,3.3907,3.3907,3.3907,3.3907,3.3223,3.3289,3.3347,3.3454,3.351,3.3592,3.3711,3.3768,3.3847,3.3892,3.3893,3.3946,3.3939,3.3936,3.3907,3.3907,3.3907,3.3907,3.3907,3.3226,3.3237,3.3325,3.3381,3.3513,3.3585,3.3674,3.3782,3.3838,3.3873,3.3924,3.3907,3.3934,3.3937,3.3935,3.3907,3.3907,3.3907,3.3907,3.32,3.3221,3.3328,3.3413,3.3505,3.3594,3.3689,3.3782,3.3878,3.3917,3.3931,3.3935,3.3934,3.3961,3.3963,3.3963,3.3943,3.3943,3.3943,3.3206,3.324,3.3309,3.3407,3.3515,3.3604,3.3696,3.3789,3.39,3.3946,3.395,3.3948,3.3954,3.3952,3.3997,3.3999,3.4,0,0]}]]